Location: *
(48.8489°N, 2.3218°E)
Time: 22:36:18
(UTC+00:00)

Landsat 7 - Pass Details

Date: 23 August 2019
Orbit: 701 x 703 km, 98.1° (Epoch: 20 September)

Event Time Altitude Azimuth Distance (km) Brightness Sun altitude
Exits shadow 20:34:03 26° 123° (ESE) 1,373 4.7 -15.6°
Maximum altitude 20:36:17 44° 68° (ENE) 980 4.3 -15.9°
Drops below altitude 10° 20:40:47 10° 358° (N) 2,181 7.0 -16.4°
Sets 20:43:08 0° 352° (N) 3,104 7.9 -16.7°
